Simultaneous Nadir Overpasses (SNOs) Predictions

Prediction of SNOs between GOES-16 and TERRA Satellite Orbit:

Table of predicted SNOs for the next 14.0 days since TLE Epoch: 8/31/2019
Index Date Time (GOES-16) GOES-16 Lat,Lon TERRA Lat,Lon Distance(km) Time Diff (sec)
1 08/31/2019 03:33:01 -0.00, -75.18 -0.18, -76.02 95.52 80
2 09/02/2019 03:23:29 -0.00, -75.18 0.45, -73.06 241.65 80
3 09/02/2019 15:42:05 0.00, -75.20 0.61, -78.22 343.05 80
4 09/04/2019 15:29:52 0.00, -75.21 0.04, -75.25 6.11 80
5 09/06/2019 15:17:40 -0.00, -75.23 -0.60, -72.30 333.16 80
6 09/07/2019 03:41:44 -0.00, -75.23 -0.51, -77.49 257.92 80
7 09/09/2019 03:26:52 -0.00, -75.25 0.13, -74.53 81.15 80
8 09/11/2019 03:14:40 -0.00, -75.28 0.77, -71.58 420.80 80
9 09/11/2019 15:38:35 0.00, -75.30 0.28, -76.74 163.22 80
10 09/13/2019 15:23:44 -0.00, -75.34 -0.36, -73.79 177.47 80




NCC Satellite Simultaneous Nadir Overpasses (SNOs) Prediction Service
